Tracking 31027 objects as of 19-Jul-2025
HD Live streaming from Space Station
objects crossing your sky now

ICEYE-X43

Track ICEYE-X43 now!
10-day predictions


NORAD ID: 60539
Int'l Code: 2024-149BZ
Perigee: 579.8 km
Apogee: 586.8 km
Inclination: 97.7 °
Period: 96.2 minutes
Semi major axis: 6954 km
RCS: Unknown
Launch date: August 16, 2024
Source: United States (US)
Launch site: AIR FORCE WESTERN TEST RANGE (AFWTR)
Your satellite tracking list
IRIDIUM 106
Track 1 satellite(s)




NASA's NSSDC Master Catalog

Two Line Element Set (TLE):
1 60539U 24149BZ  25199.57749673  .00002330  00000-0  20752-3 0  9994
2 60539  97.7128 276.0163 0005043  99.4472 260.7320 14.97000690 50158
Source of the keplerian elements: AFSPC